Regional Weather Roundup
Issued by NWS

Home | Current Version | Previous Version | Text Only | Print | Product List | Glossary On
Versions: 1 2 3 4 5 6 7 8 9 10 11 12 13 14 15 16 17 18 19 20 21 22 23 24 25 26 27 28 29 30 31 32 33 34 35 36 37 38 39 40 41 42 43 44 45 46 47 48 49 50
000
ASUS44 KEWX 141903
RWRTX
SOUTH TEXAS REGIONAL WEATHER ROUNDUP
NATIONAL WEATHER SERVICE AUSTIN/SAN ANTONIO TX
100 PM CST SUN FEB 14 2016

NOTE: "FAIR" INDICATED FEW OR NO CLOUDS BELOW 12,000 FEET WITH NO
SIGNIFICANT WEATHER AND/OR OBSTRUCTIONS TO VISIBILITY.

* - THESE STATIONS ARE NOT NWS OR FAA STATIONS...AND ARE NOT SUBJECT
    TO NWS AND FAA QUALITY CONTROL.

TXZ171-172-183>190-142000-
TEXAS HILL COUNTRY AND EDWARDS PLATEAU

CITY           SKY/WX    TMP DP  RH WIND       PRES   REMARKS
JUNCTION       MOSUNNY   71  50  47 SW9       29.93F
*LLANO         PTSUNNY   70  54  56 SW13      29.97F
BURNET         PTSUNNY   67  53  61 S17G25    29.94F
*HORSESHOE BAY PTSUNNY   71  55  58 S14G22    29.95F
*KERRVILLE     CLOUDY    61  56  84 S14       29.96F
*FREDERICKSBRG CLOUDY    62  53  72 SW14      29.95F
*ROCKSPRINGS   MOSUNNY   64  54  68 S12       29.97F
*BOERNE STAGE  CLOUDY    61  54  77 SW9       29.98F
*CASTROVILLE   CLOUDY    70  55  57 S14       29.97F
HONDO          PTSUNNY   69  56  62 S10       29.95F
*UVALDE        PTSUNNY   64  56  73 S6        29.96F
DEL RIO        CLOUDY    66  53  63 VRB6      29.91F
LAUGHLIN AFB   CLOUDY    65  54  68 SE9       29.91F
CARRIZO SPRGS  SUNNY     73  54  49 S9        29.91F
*EAGLE PASS    CLEAR     72  55  56 VRB6G12   29.91F
$$

TXZ173-191>194-202-209-217>225-228-142000-
CENTRAL AND SOUTH CENTRAL TEXAS

CITY           SKY/WX    TMP DP  RH WIND       PRES   REMARKS
GEORGETOWN     CLOUDY    68  54  60 S18G28    29.93F
AUSTIN/BERGSTM CLOUDY    72  58  61 SW16G24   29.92F
AUSTIN/MABRY   CLOUDY    68  57  68 S9G21     29.95F
*AUSTIN/EXEC   CLOUDY    68  57  68 SW17G29   29.94F
*LAGO VISTA    CLOUDY    65  55  69 S16G23    29.95F
SAN MARCOS     PTSUNNY   66  59  77 S22       29.95F
NEW BRAUNFELS  CLOUDY    71  56  58 S18G28    29.93F
RANDOLPH AFB   CLOUDY    70  58  66 S14       29.94F
PT SAN ANTONIO CLOUDY    71  59  64 S12G18    29.92F
SAN ANTONIO    CLOUDY    68  57  68 S12G18    29.95F
STINSON FIELD  CLOUDY    72  56  57 S14       29.92F
*PLEASANTON    CLOUDY    73  54  51 S15G24    29.93F
*LA GRANGE     MOSUNNY   75  58  55 SW17G26   29.95F
*GIDDINGS      MOSUNNY   73  55  51 S16G24    29.99F
*GONZALES      PTSUNNY   73  58  59 S14G24    29.95F
$$

TXZ163>164-176>182-195>201-210>213-226-227-235-142000-
SOUTHEAST TEXAS

CITY           SKY/WX    TMP DP  RH WIND       PRES   REMARKS
COLLEGE STN    PTSUNNY   72  54  53 S18G25    29.95F
*BRYAN         CLOUDY    73  54  52 S17G24    29.97F
*CALDWELL      PTSUNNY   70  55  60 S18G24    29.98F
*CROCKETT      PTSUNNY   72  54  53 S13G20    30.00F
*BRENHAM       PTSUNNY   75  54  49 S17G24    29.97F
HUNTSVILLE     CLOUDY    74  52  46 S20G30    29.96F
CONROE         MOSUNNY   74  50  42 S24G32    29.98F
HOUSTON BUSH   PTSUNNY   73  52  47 S13G21    29.99F
HOUSTON HOBBY  CLOUDY    72  55  55 S17G28    29.99F
*HOUSTON SW AP CLOUDY    73  56  57 S12G21    30.01F
PEARLAND       CLOUDY    73  53  49 S17G29    30.01F
HOUSTON HOOKS  CLOUDY    76  55  48 S16G22    29.99F
ELLINGTON FLD  PTSUNNY   72  55  56 S21G28    30.01F
SUGAR LAND     CLOUDY    73  57  57 S16G25    29.98F
*HOUSTON EXEC  CLOUDY    73  57  56 S21       29.99F
*CLEVELAND MUN CLOUDY    76  55  47 S16G24    30.01F
*WHARTON       CLOUDY    73  59  61 S17G26    30.01F
*COLUMBUS      PTSUNNY   72  57  58 S17G23    29.97F
*EAGLE LAKE    CLOUDY    72  58  60 S15G25    29.98F
$$

TXZ214>216-236>238-142000-
THE UPPER TEXAS COAST

CITY           SKY/WX    TMP DP  RH WIND       PRES   REMARKS
*ORANGE        CLOUDY    67  57  70 SE13      30.07F
PORT ARTHUR    CLOUDY    74  58  57 S16G22    30.02F
GALVESTON      CLOUDY    67  60  78 S13       30.03F
ANGLETON       CLOUDY    74  58  57 S18G32    30.01F
*BAY CITY      CLOUDY    73  60  63 S20G25    30.01F
PALACIOS       CLOUDY    70  61  73 S17G25    29.99F
$$

TXZ229>234-239>247-142000-
TEXAS COASTAL BEND AND RIO GRANDE PLAINS

CITY           SKY/WX    TMP DP  RH WIND       PRES   REMARKS
VICTORIA       CLOUDY    77  55  46 S23G31    29.97F
*BEEVILLE      CLOUDY    78  58  49 S20G25    29.95F
ROCKPORT       SUNNY     75  60  59 S13G25    29.98F
*PORT ARANSAS  CLOUDY    71  62  75 S12G17    29.98F
*PORT LAVACA   CLOUDY    74  58  58 S24G32    29.99F
*INGLESIDE     SUNNY     73  56  54 S18G30    29.97F
CORPUS CHRISTI PTSUNNY   77  56  48 S20G28    29.95F
CORPUS NAS     SUNNY     76  62  62 SE25G31   29.96F
*ROBSTOWN      MOSUNNY   78  56  47 S20G28    29.96F
ALICE          SUNNY     79  55  43 S16       29.92F
KINGSVILLE NAS SUNNY     80  59  48 S21G31    29.93F
COTULLA        SUNNY     79  53  40 S12       29.91F
*FAITH RANCH   SUNNY     75  55  50 VRB7      29.90F
LAREDO         SUNNY     78  54  43 S10G17    29.89F
$$

TXZ248>255-142000-
DEEP SOUTH TEXAS

CITY           SKY/WX    TMP DP  RH WIND       PRES   REMARKS
BROWNSVILLE    MOSUNNY   77  59  53 S21G33    29.96F
PORT ISABEL    MOSUNNY   78  57  48 S28G35    29.95F HAZE
*SOUTH PADRE     N/A     72  64  78 S12       29.97F
HARLINGEN      SUNNY     81  56  42 S24G35    29.93F
*HEBBRONVILLE  NOT AVBL
MCALLEN        SUNNY     82  54  37 S18G30    29.92F
*WESLACO       SUNNY     80  53  40 S23G32    29.93F
FALFURRIAS     SUNNY     78  53  41 SE18G26   29.94F
EDINBURG       SUNNY     82  50  32 S21G29    29.93F
*ZAPATA        SUNNY     76  53  44 S12G17    29.91F
$$

TXZ213>215-236>238-242>244-246-247-251-254-255-142000-
CMAN STATIONS

STATION/POSITION TIME  TEMP    WIND        PRES    WAVE
                       AIR SEA DIR/SP/G            HT/PER
                 (UTC) (F)     (DEG/KT/KT) (MB)    (FT/S)
SABINE PASS      1800   61 60  140/ 12/ 14 1019.2
SEA RIM ST PARK  1800   63     140/  9/ 12 1018.3
NORTH JETTY/GLS  1800   64 61  200/ 10/ 12   N/A
EAGLE POINT      1800   68 58  210/ 19/ 25 1017.3
MORGANS POINT    1800   70 56  170/ 12/ 15 1017.1
MISSION/ARANSAS  1800   71                 1017.0
PORT O`CONNOR    1800          160/ 14/ 16   N/A
PORT ARANSAS     1800   67 66  150/ 14/ 15 1016.8
MALAQUITE BEACH  1800   66     140/ 13/ 14 1016.0
BAFFIN BAY       1800   70 69  170/ 16/ 22 1015.6
PORT ISABEL      1800   73 64  170/ 22/ 27 1015.6
$$

GMZ080-GMZ150>470-142000-
OFFSHORE BUOY REPORTS

STATION/POSITION TIME  TEMP    WIND        PRES    WAVE
                       AIR SEA DIR/SP/G            HT/PER
                 (UTC) (F)     (DEG/KT/KT) (MB)    (FT/S)
20 E GALVESTON   1850   63 61  180/  8/ 10 1016.9    3/ 5
90 E PT ARANSAS  1850   68 63  160/ 12/ 16 1016.5    6/ 6
35 NE PT MANSFLD 1850   69 68  160/ 14/ 16 1015.2    4/ 6
200 E PT ISABEL  1850                        N/A     4/ 7
$$



USA.gov is the U.S. government's official web portal to all federal, state and local government web resources and services.